STARLINK-36729, 67905

Orbit data source: Space-Track

STARLINK-36729, 67905 is a payload satellite owned by SpaceX/Seattle (US) in LEO that was launched on Sun, 22 Feb 2026 UTC via an FALCON 9 launch vehicle from the Air Force Eastern Test Range (AFETR). Payload-class satellites include a variety of spacecraft equipped with specific instruments for various scientific and technological missions. These include communications satellites like Starlink; space stations such as the ISS; scientific satellites like the Hubble; Earth observation satellites from companies like Planet Labs, Umbra, and HawkEye 360; GPS; miniature CubeSats for education and research; and military/defense satellites.

Loading next visibility...
Identifier
67905, 2026-036B
Orbit
LEO
Country
Flag of USUS
Related business
Manufacturer
SpaceX/Seattle
Mission
Operational spacecraft
Bus & Motor
STARLINK V2MO, Unknown motor
Mass
575 kg wet, ~530 kg dry
Launch date (UTC)
2026-02-22 (2 months ago)
Launch vehicle
FALCON 9
Launch site
Air Force Eastern Test Range (AFETR)
Object type
Payload
Rocket body
Debris
Shape & HBR
Unknown shape, 17.7 m
Radar Cross Section
RCS unknown

Expand to show TLE details & history
Last TLE update: 1 day ago

TLE from 1 day ago
0 STARLINK-36729
1 67905U 26036B   26103.25184975  .00015983  00000-0  58885-3 0  9990
2 67905  43.0035  50.4540 0001129 263.1290  96.9433 15.27593340  9000
Epoch: 2026-04-13T06:02Z
TLE epoch observation values (Epoch: 2026-04-13T06:02:39.818Z)
Latitude
-0.00003°
Longitude
118.34293°
Altitude
482.879 km
Speed
7.626 km/s
True Right ascension
03h 21m 48s
True Declination
0° 00' 00"
Sunlit
Object was in daylight at epoch
Visualization orbit readout
Latitude
Unknown
Longitude
Unknown
Altitude
Unknown
Speed
Unknown
Apparent Right ascension
Unknown
Apparent Declination
Unknown
Sunlit
N/A
Visualization observer readout
Local Sidereal Time
15:09:16
Azimuth
Unknown
Elevation
Unknown
Doppler factor
Unknown
Orbital elements
Apogee altitude
485.729 km
Perigee altitude
484.179 km
Semi-major axis
6,863.091 km
Eccentricity
0.00011
Inclination
43.0035°
RAAN
50.454°
Arg. of periapsis
263.129°
True anomaly
96.95614°
Mean anomaly
96.9433°
Eccentric anomaly
96.94972°
Mean motion
3.81736 °/min
Orbital period
94.31 mins
BSTAR
0.00058885
Loading maneuver chart data...
Computing Atmospheric mass density...
Loading historical data...
Loading historical data...
Loading historical data...
Loading historical data...
Loading historical data...
Loading historical data...
Loading historical data...

Documentation

Showing up to 5 results
|